Regional Weather Roundup
Issued by NWS

Home | Current Version | Previous Version | Text Only | Print | Product List | Glossary On
Versions: 1 2 3 4 5 6 7 8 9 10 11 12 13 14 15 16 17 18 19 20 21 22 23 24 25 26 27 28 29 30 31 32 33 34 35 36 37 38 39 40 41 42 43 44 45 46 47 48 49 50
000
ASUS43 KLSX 191857
RWRMO

WEATHER SUMMARY FOR MISSOURI
NATIONAL WEATHER SERVICE SPRINGFIELD MO
100 PM CST MON FEB 19 2018

NOTE: "FAIR" INDICATES FEW OR NO CLOUDS BELOW 12,000 FEET WITH NO
       SIGNIFICANT WEATHER AND/OR OBSTRUCTIONS TO VISIBILITY.
       CURRENT SKY AND/OR WEATHER CONDITIONS ARE NOT AVAILABLE FOR
       CHILLICOTHE AND FARMINGTON.

MOZ001>031-035>038-043-044-053-054-192000-
...NORTHERN AND WESTERN MISSOURI...

CITY           SKY/WX    TMP DP  RH WIND       PRES   REMARKS
KANSAS CTY INT LGT RAIN  34  31  88 NW12      29.77R FOG     WCI  25
LEE`S SUMMIT   CLOUDY    48  41  76 W12       29.74R
ST JOSEPH      CLOUDY    32  32 100 NW13      29.79R WCI  22
CHILLICOTHE      N/A     51  47  86 VRB5      29.72R

$$
MOZ066>068-077>081-088>096-101>105-192000-
...SOUTHWEST MISSOURI...

CITY           SKY/WX    TMP DP  RH WIND       PRES   REMARKS
SPRINGFIELD    CLOUDY    65  61  87 S21G31    29.80F
JOPLIN         CLOUDY    65  63  93 S23G33    29.75F
BRANSON        CLOUDY    66  59  77 S16G28    29.87F

$$
MOZ032>034-039>042-045>050-055>058-069>072-192000-
...CENTRAL MISSOURI...

CITY           SKY/WX    TMP DP  RH WIND       PRES   REMARKS
COLUMBIA       NOT AVBL
JEFFERSON CITY RAIN      61  58  90 S13       29.81S FOG
ROLLA          LGT RAIN  59  59 100 S14       29.82F
SEDALIA        RAIN      62  61  96 S17G30    29.76F FOG
WARRENSBURG    RAIN      63  59  88 S17       29.71F

$$
MOZ051-052-059>065-192000-
...EAST CENTRAL MISSOURI...

CITY           SKY/WX    TMP DP  RH WIND       PRES   REMARKS
ST LOUIS INTL  LGT RAIN  61  58  90 S14G24    29.86S
SPIRIT OF STL  TSTM      61  59  94 S12G20    29.85S FOG

$$
MOZ072>076-082>087-097>100-106>115-192000-
...SOUTH CENTRAL AND SOUTHEAST MISSOURI...

CITY           SKY/WX    TMP DP  RH WIND       PRES   REMARKS
CAPE GIRARDEAU CLOUDY    66  59  78 S15G32    30.00F
POPLAR BLUFF   CLOUDY    69  60  73 S22G31    29.97F
WEST PLAINS    CLOUDY    64  57  78 S14G26    29.92F

$$



USA.gov is the U.S. government's official web portal to all federal, state and local government web resources and services.